CZ-6A DEB, 61469

Orbit data source: Space-Track

CZ-6A DEB, 61469 is space debris in LEO originally from a launch on Tue, 06 Aug 2024 UTC launched from the Taiyaun Space Center, China (TSC). Debris objects in space refer to the collection of defunct objects orbiting the Earth. Examples of debris include non-operational satellites, rocket bodies, and fragments generated from explosions, collisions, or faulty payload assembly.

Loading next visibility...
Identifier
61469, 2024-140AAB
Orbit
LEO
Last TLE update
19 hours ago
Origin
Manufacturer
SAST
Mission
Spacecraft
Bus & Motor
Unknown
Mass
Unknown
Launch date (UTC)
2024-08-06 (11 months ago)
Launch vehicle
Unknown
Launch site
Taiyaun Space Center, China (TSC)
Object type
Payload
Rocket body
Debris
Shape & HBR
Unknown
Radar Cross Section
Small (<0.1 m²)

Expand to show TLE details & history

TLE from 19 hours ago
0 CZ-6A DEB
1 61469U 24140AAB 25189.90285668  .00003444  00000-0  49027-3 0  9996
2 61469  90.0423 354.2815 0136180 288.9429  69.7070 14.70466505 47070
Epoch: 2025-07-08T21:40Z
TLE epoch observation values (Epoch: 2025-07-08T21:40:06.817Z)
Latitude
-0.00007°
Longitude
102.16192°
Altitude
630.617 km
Speed
7.56 km/s
True Right ascension
23h 37m 07s
True Declination
0° 00' 00"
Sunlit
Object was in daylight at epoch
Visualization orbit readout
Latitude
-36.36119°
Longitude
102.19711°
Altitude
597.298 km
Speed
7.601 km/s
Apparent Right ascension
20h 44m 31s
Apparent Declination
-48° 56' 20"
Sunlit
Object is in full shadow
Visualization observer readout
Local Sidereal Time
05:17:24
Azimuth
238.395° WSW
Elevation
-52.705°
Doppler factor
1
Orbital elements
Apogee altitude
752.252 km
Perigee altitude
560.658 km
Semi-major axis
7,034.592 km
Eccentricity
0.01362
Inclination
90.0423°
RAAN
354.2815°
Arg. of periapsis
288.9429°
True anomaly
Unknown
Mean anomaly
69.707°
Eccentric anomaly
Unknown
Mean motion
3.67862 °/min
Orbital period
97.86 mins
BSTAR
0.00049027
Loading maneuver chart data...
Loading SW <> Apogee altitude chart data...
Loading historical data...
Loading historical data...
Loading historical data...
Loading historical data...
Loading historical data...
Loading historical data...
Loading historical data...

CZ-6A DEB Visibility forecast

Observer location: undefined°, undefined°

Span
Click to sort rows by Start time (UTC) header in descending order
Start Az.
Max El. time (UTC)
Max El. Az.
Max El.
End time (UTC)
End Az.
8 mins2025-07-09 22:44:19.107Z19.68° NNE2025-07-09 22:48:19.107Z74.4° E31.388°2025-07-09 22:52:19.107Z149.511° SSE
5 mins2025-07-10 00:24:19.107Z314.457° NW2025-07-10 00:26:19.107Z282.552° WNW20.765°2025-07-10 00:29:19.107Z239.745° WSW
8 mins2025-07-10 11:21:19.107Z178.311° S2025-07-10 11:24:19.107Z188.736° SSW43.622°2025-07-10 11:29:19.107Z356.785° N
|